Simultaneous Nadir Overpasses (SNOs) Predictions

Prediction of SNOs between GOES-16 and TERRA Satellite Orbit:

Table of predicted SNOs for the next 14.0 days since TLE Epoch: 6/8/2024
Index Date Time (GOES-16) GOES-16 Lat,Lon TERRA Lat,Lon Distance(km) Time Diff (sec)
1 06/08/2024 14:41:57 0.06, -75.20 -0.33, -73.33 213.11 80
2 06/09/2024 02:59:21 -0.05, -75.20 -0.71, -78.20 341.50 80
3 06/11/2024 02:44:38 -0.05, -75.22 0.22, -74.02 136.44 80
4 06/11/2024 15:01:52 0.04, -75.22 0.84, -78.85 413.41 80
5 06/13/2024 14:47:08 0.04, -75.24 -0.06, -74.66 65.95 80
6 06/14/2024 03:04:32 -0.04, -75.25 -0.95, -79.54 487.83 80
7 06/16/2024 02:47:07 -0.04, -75.28 -0.06, -75.34 7.46 80
8 06/18/2024 02:32:22 -0.04, -75.31 0.85, -71.15 473.73 80
9 06/18/2024 14:49:35 0.03, -75.32 0.20, -75.98 75.60 80
10 06/20/2024 14:34:49 0.03, -75.35 -0.69, -71.78 405.82 80
11 06/21/2024 02:52:12 -0.03, -75.36 -0.33, -76.65 147.35 80
